FW9036 Weather Reports


time (UTC)temp
C
wind
direction
speed
KPH
gust
KPH
rain 1hr
cm
rain 24hr
cm
rain mn
cm
humidity
%
barometer
mb
20260506082036 18 90 0.0 3.2 0.00 0.00 0.00 79 1017.4
20260506081535 18 99 0.0 3.2 0.00 0.00 0.00 79 1017.2
20260506081032 18 90 0.0 3.2 0.00 0.00 0.00 79 1017.3
20260506080529 18 77 1.6 1.6 0.00 0.00 0.00 79 1017.4
20260506073513 18 114 0.0 3.2 0.00 0.00 0.00 78 1017.0
20260506073010 18 121 0.0 3.2 0.00 0.00 0.00 79 1016.8
20260506072507 18 99 0.0 3.2 0.00 0.00 0.00 79 1017.0
20260506072004 18 90 1.6 1.6 0.00 0.00 0.00 79 1017.3
20260506071502 18 123 0.0 3.2 0.00 0.00 0.00 80 1017.1
20260506070959 18 120 0.0 0.0 0.00 0.00 0.00 80 1017.5
20260506070456 18 105 0.0 1.6 0.00 0.00 0.00 80 1017.3
20260506062434 18 114 0.0 0.0 0.00 0.00 0.00 77 1017.7
20260506061929 18 81 0.0 1.6 0.00 0.00 0.00 77 1017.8
20260506061426 18 126 0.0 1.6 0.00 0.00 0.00 77 1017.9
20260506060924 18 98 0.0 1.6 0.00 0.00 0.00 77 1017.7
20260506060422 18 98 0.0 1.6 0.00 0.00 0.00 76 1018.0
20260506051354 18 98 0.0 1.6 0.00 0.00 0.00 80 1018.1
20260506050851 18 99 0.0 0.0 0.00 0.00 0.00 81 1018.1
20260506050349 17 151 0.0 1.6 0.00 0.00 0.00 80 1018.3
20260506044839 18 90 0.0 0.0 0.00 0.00 0.00 80 1018.3
20260506044337 18 90 0.0 0.0 0.00 0.00 0.00 80 1018.4
20260506043834 18 90 0.0 0.0 0.00 0.00 0.00 79 1018.3
20260506043331 18 90 0.0 0.0 0.00 0.00 0.00 79 1018.3
20260506042829 18 90 0.0 0.0 0.00 0.00 0.00 79 1018.4
20260506042328 18 90 0.0 0.0 0.00 0.00 0.00 78 1018.4
20260506041827 18 90 0.0 0.0 0.00 0.00 0.00 78 1018.5
20260506041323 18 90 0.0 0.0 0.00 0.00 0.00 78 1018.4
20260506040820 18 90 0.0 0.0 0.00 0.00 0.00 78 1018.5
20260506040317 18 90 0.0 0.0 0.00 0.00 0.00 77 1018.5
20260506035814 18 90 0.0 0.0 0.00 0.00 0.00 77 1018.6
20260506035311 18 90 0.0 0.0 0.00 0.00 0.00 77 1018.6
20260506034808 18 90 0.0 0.0 0.00 0.00 0.00 76 1018.4
20260506034305 19 90 0.0 1.6 0.00 0.00 0.00 76 1018.5
20260506033802 18 114 0.0 0.0 0.00 0.00 0.00 76 1018.7
20260506033259 19 114 0.0 0.0 0.00 0.00 0.00 75 1018.7
20260506032756 18 114 0.0 0.0 0.00 0.00 0.00 75 1018.5
20260506032253 19 114 0.0 0.0 0.00 0.00 0.00 75 1018.5
20260506031749 19 114 0.0 0.0 0.00 0.00 0.00 74 1018.4
20260506031247 19 114 0.0 0.0 0.00 0.00 0.00 74 1018.5
20260506030745 19 114 0.0 0.0 0.00 0.00 0.00 74 1018.5
20260506030243 19 114 0.0 0.0 0.00 0.00 0.00 74 1018.5
20260506025739 20 114 0.0 0.0 0.00 0.00 0.00 74 1018.2
20260506025235 20 114 0.0 0.0 0.00 0.00 0.00 73 1018.3
20260506024732 20 114 0.0 0.0 0.00 0.00 0.00 73 1018.3
20260506024229 20 114 0.0 0.0 0.00 0.00 0.00 73 1018.3
20260506023725 20 114 0.0 0.0 0.00 0.00 0.00 73 1018.3
20260506023223 20 114 0.0 0.0 0.00 0.00 0.00 73 1018.2
20260506022719 20 114 0.0 1.6 0.00 0.00 0.00 73 1018.2
20260506022217 20 106 0.0 0.0 0.00 0.00 0.00 72 1017.8
20260506021715 20 106 0.0 0.0 0.00 0.00 0.00 72 1017.8
20260506021212 20 106 0.0 0.0 0.00 0.00 0.00 71 1017.8
20260506020708 21 106 0.0 0.0 0.00 0.00 0.00 70 1017.6
20260506020206 21 90 0.0 3.2 0.00 0.00 0.00 70 1017.5
20260506015704 21 105 0.0 4.8 0.00 0.00 0.00 70 1017.8
20260506015201 21 175 0.0 0.0 0.00 0.00 0.00 69 1017.7
20260506014658 21 99 0.0 3.2 0.00 0.00 0.00 69 1017.5
20260506014154 21 157 0.0 3.2 0.00 0.00 0.00 69 1017.6
20260506013652 21 99 0.0 4.8 0.00 0.00 0.00 69 1017.6
20260506013149 21 105 0.0 3.2 0.00 0.00 0.00 69 1017.7
20260506012645 21 157 0.0 4.8 0.00 0.00 0.00 69 1017.4
20260506012141 21 180 0.0 3.2 0.00 0.00 0.00 69 1017.6
20260506011639 21 154 0.0 6.4 0.00 0.00 0.00 68 1017.6
20260506011135 21 120 0.0 4.8 0.00 0.00 0.00 69 1017.4
20260506010634 21 126 0.0 3.2 0.00 0.00 0.00 69 1017.4
20260506010131 21 120 0.0 3.2 0.00 0.00 0.00 69 1017.2
20260506005628 22 117 0.0 3.2 0.00 0.00 0.00 68 1017.4
20260506005124 22 117 3.2 4.8 0.00 0.00 0.00 68 1017.3
20260506004621 22 161 3.2 4.8 0.00 0.00 0.00 67 1017.4
20260506004118 22 114 0.0 6.4 0.00 0.00 0.00 67 1017.1
20260506003614 22 154 1.6 6.4 0.00 0.00 0.00 66 1017.5
20260506003110 22 143 3.2 4.8 0.00 0.00 0.00 66 1017.2
20260506002607 22 120 4.8 6.4 0.00 0.00 0.00 66 1017.2
20260506002103 22 161 3.2 4.8 0.00 0.00 0.00 66 1017.3
20260506001559 22 188 0.0 4.8 0.00 0.00 0.00 67 1016.9
20260506001056 22 180 3.2 8.0 0.00 0.00 0.00 65 1017.2
20260506000554 22 77 3.2 6.4 0.00 0.00 0.00 65 1017.0
20260506000051 23 114 3.2 8.0 0.00 0.00 0.00 65 1016.8
20260505235549 23 113 3.2 8.0 0.00 0.00 0.00 64 1017.2
20260505235045 23 180 3.2 4.8 0.00 0.00 0.00 63 1016.8
20260505234542 23 139 3.2 11.3 0.00 0.00 0.00 63 1017.0
20260505234039 23 121 6.4 12.9 0.00 0.00 0.00 62 1017.1
20260505233537 23 108 4.8 9.7 0.00 0.00 0.00 62 1017.0
20260505233034 23 81 4.8 8.0 0.00 0.00 0.00 61 1017.0
20260505232532 24 79 0.0 8.0 0.00 0.00 0.00 61 1016.9
20260505232029 24 90 1.6 4.8 0.00 0.00 0.00 60 1016.8
20260505231526 25 90 3.2 6.4 0.00 0.00 0.00 59 1016.8
20260505231025 25 87 6.4 6.4 0.00 0.00 0.00 59 1016.7
20260505230521 25 115 3.2 8.0 0.00 0.00 0.00 58 1016.8
20260505230018 25 98 4.8 9.7 0.00 0.00 0.00 58 1016.7
20260505225515 25 90 3.2 8.0 0.00 0.00 0.00 57 1016.8
20260505225011 25 109 4.8 11.3 0.00 0.00 0.00 57 1016.7
20260505224508 26 85 3.2 6.4 0.00 0.00 0.00 56 1016.9
20260505224005 26 90 4.8 6.4 0.00 0.00 0.00 55 1016.8
20260505223502 26 90 0.0 11.3 0.00 0.00 0.00 53 1016.9
20260505222958 26 125 4.8 8.0 0.00 0.00 0.00 52 1016.7
20260505222455 26 112 4.8 6.4 0.00 0.00 0.00 52 1016.9
20260505221950 25 135 0.0 9.7 0.00 0.00 0.00 52 1017.0
20260505221448 26 131 8.0 11.3 0.00 0.00 0.00 53 1016.9
20260505220945 26 109 4.8 12.9 0.00 0.00 0.00 51 1016.9
20260505220442 27 114 3.2 6.4 0.00 0.00 0.00 50 1017.0
20260505215939 27 81 3.2 6.4 0.00 0.00 0.00 50 1016.9
20260505215438 27 75 4.8 12.9 0.00 0.00 0.00 49 1017.0
20260505214935 27 90 3.2 8.0 0.00 0.00 0.00 50 1016.9
20260505214433 26 152 3.2 11.3 0.00 0.00 0.00 49 1016.8
20260505213930 27 78 4.8 11.3 0.00 0.00 0.00 49 1016.9
20260505213427 27 60 8.0 11.3 0.00 0.00 0.00 47 1016.9
20260505212923 27 123 8.0 9.7 0.00 0.00 0.00 47 1016.9
20260505212420 28 150 4.8 4.8 0.00 0.00 0.00 47 1017.0
20260505211916 27 70 4.8 9.7 0.00 0.00 0.00 47 1016.8
20260505211414 27 65 3.2 8.0 0.00 0.00 0.00 47 1017.0
20260505210910 27 153 4.8 12.9 0.00 0.00 0.00 47 1017.0
20260505210408 27 79 4.8 11.3 0.00 0.00 0.00 48 1016.9
20260505205905 27 105 6.4 9.7 0.00 0.00 0.00 49 1016.8
20260505205403 27 70 4.8 12.9 0.00 0.00 0.00 49 1017.1
20260505204900 28 79 4.8 8.0 0.00 0.00 0.00 49 1017.0
20260505204357 28 77 8.0 11.3 0.00 0.00 0.00 49 1017.3
20260505203855 27 101 6.4 11.3 0.00 0.00 0.00 50 1017.3
20260505203350 28 118 6.4 9.7 0.00 0.00 0.00 48 1017.1
20260505202847 27 105 3.2 14.5 0.00 0.00 0.00 48 1017.2
20260505202343 27 76 8.0 14.5 0.00 0.00 0.00 49 1017.2
20260505201840 27 69 6.4 12.9 0.00 0.00 0.00 48 1017.4
20260505201337 27 167 8.0 12.9 0.00 0.00 0.00 48 1017.6
20260505200836 27 65 6.4 11.3 0.00 0.00 0.00 49 1017.5
20260505200332 27 101 8.0 11.3 0.00 0.00 0.00 49 1017.6
20260505195828 27 68 9.7 17.7 0.00 0.00 0.00 48 1017.4
20260505195325 27 66 1.6 11.3 0.00 0.00 0.00 48 1017.4
20260505194822 27 76 8.0 14.5 0.00 0.00 0.00 47 1017.6
20260505194319 27 62 4.8 11.3 0.00 0.00 0.00 47 1017.5
20260505193814 27 114 8.0 12.9 0.00 0.00 0.00 49 1017.4
20260505193313 27 40 6.4 12.9 0.00 0.00 0.00 49 1017.6
20260505192810 27 61 4.8 6.4 0.00 0.00 0.00 47 1017.6
20260505192310 27 115 3.2 11.3 0.00 0.00 0.00 50 1017.7
20260505191806 27 70 9.7 14.5 0.00 0.00 0.00 48 1017.7
20260505191304 27 49 8.0 11.3 0.00 0.00 0.00 49 1018.0
20260505190800 27 103 6.4 8.0 0.00 0.00 0.00 49 1017.9
20260505190256 28 72 11.3 11.3 0.00 0.00 0.00 49 1018.2
20260505185752 28 90 4.8 9.7 0.00 0.00 0.00 49 1018.1
20260505185248 28 63 4.8 11.3 0.00 0.00 0.00 47 1018.0
20260505184744 28 90 4.8 11.3 0.00 0.00 0.00 48 1018.0
20260505184242 28 100 6.4 14.5 0.00 0.00 0.00 49 1018.0
20260505183738 27 103 9.7 12.9 0.00 0.00 0.00 49 1018.2
20260505183236 28 65 11.3 12.9 0.00 0.00 0.00 47 1017.9
20260505182732 28 76 9.7 9.7 0.00 0.00 0.00 47 1018.1
20260505182229 28 124 0.0 9.7 0.00 0.00 0.00 49 1018.1
20260505181725 27 81 3.2 9.7 0.00 0.00 0.00 50 1018.3
20260505181223 28 105 4.8 11.3 0.00 0.00 0.00 50 1018.3
20260505180720 27 59 9.7 9.7 0.00 0.00 0.00 50 1018.4
20260505180216 27 87 6.4 9.7 0.00 0.00 0.00 51 1018.4
20260505175713 27 103 3.2 8.0 0.00 0.00 0.00 53 1018.4
20260505175209 27 97 4.8 12.9 0.00 0.00 0.00 52 1018.6
20260505174706 27 99 3.2 9.7 0.00 0.00 0.00 54 1018.6
20260505174203 27 87 4.8 11.3 0.00 0.00 0.00 52 1018.4
20260505173659 28 117 0.0 6.4 0.00 0.00 0.00 49 1018.7
20260505173155 28 170 4.8 6.4 0.00 0.00 0.00 51 1018.4
20260505172653 27 117 3.2 6.4 0.00 0.00 0.00 52 1018.6
20260505172150 27 82 8.0 12.9 0.00 0.00 0.00 52 1018.5
20260505171649 27 67 3.2 8.0 0.00 0.00 0.00 52 1018.5
20260505171147 26 114 1.6 11.3 0.00 0.00 0.00 54 1018.5
20260505170644 26 37 8.0 8.0 0.00 0.00 0.00 52 1018.9
20260505170140 26 94 4.8 9.7 0.00 0.00 0.00 55 1018.8
20260505165635 26 75 8.0 8.0 0.00 0.00 0.00 54 1018.9
20260505165131 27 90 1.6 9.7 0.00 0.00 0.00 52 1018.9
20260505164626 26 58 6.4 11.3 0.00 0.00 0.00 51 1019.0
20260505164124 26 99 3.2 9.7 0.00 0.00 0.00 52 1019.2
20260505163623 27 90 8.0 8.0 0.00 0.00 0.00 53 1018.9
20260505163120 26 85 0.0 6.4 0.00 0.00 0.00 54 1019.1
20260505162617 27 74 8.0 8.0 0.00 0.00 0.00 53 1019.1
20260505162115 26 71 4.8 16.1 0.00 0.00 0.00 55 1018.9
20260505161612 26 65 8.0 8.0 0.00 0.00 0.00 52 1018.9
20260505161109 26 60 4.8 9.7 0.00 0.00 0.00 51 1019.2
20260505160607 26 96 3.2 8.0 0.00 0.00 0.00 52 1019.1
20260505160104 26 58 4.8 8.0 0.00 0.00 0.00 53 1019.1
20260505153044 26 70 3.2 11.3 0.00 0.00 0.00 55 1019.0
20260505152540 26 66 4.8 9.7 0.00 0.00 0.00 55 1019.2
20260505152036 25 78 3.2 8.0 0.00 0.00 0.00 57 1019.2
20260505151531 25 90 3.2 6.4 0.00 0.00 0.00 57 1019.0
20260505151029 25 59 3.2 6.4 0.00 0.00 0.00 59 1019.1
20260505150525 25 96 3.2 8.0 0.00 0.00 0.00 60 1019.1
20260505140450 23 114 4.8 8.0 0.00 0.00 0.00 62 1019.1
20260505124903 21 120 8.0 8.0 0.00 0.00 0.00 70 1018.6
20260505124401 21 121 3.2 4.8 0.00 0.00 0.00 71 1018.4
20260505123856 21 145 0.0 4.8 0.00 0.00 0.00 74 1018.7
20260505123353 20 98 0.0 3.2 0.00 0.00 0.00 76 1018.9
20260505122849 19 117 0.0 3.2 0.00 0.00 0.00 79 1018.9
20260505122347 18 99 0.0 1.6 0.00 0.00 0.00 83 1018.6
20260505121843 17 135 3.2 3.2 0.00 0.00 0.00 86 1018.6
20260505121340 17 123 0.0 0.0 0.00 0.00 0.00 88 1018.4
20260505120836 17 123 0.0 3.2 0.00 0.00 0.00 88 1018.5
20260505120332 16 81 0.0 0.0 0.00 0.00 0.00 88 1018.5
20260505115831 16 90 0.0 1.6 0.00 0.00 0.00 88 1018.4
20260505115328 16 106 0.0 1.6 0.00 0.00 0.00 89 1018.5
20260505114826 16 90 0.0 1.6 0.00 0.00 0.00 89 1018.2
20260505114323 15 97 0.0 1.6 0.00 0.00 0.00 89 1018.5
20260505113819 15 106 0.0 1.6 0.00 0.00 0.00 89 1018.2
20260505113315 15 106 0.0 3.2 0.00 0.00 0.00 89 1018.2
20260505112811 15 90 0.0 1.6 0.00 0.00 0.00 89 1018.5
20260505112309 15 106 1.6 1.6 0.00 0.00 0.00 89 1018.1
20260505111804 15 90 0.0 0.0 0.00 0.00 0.00 88 1018.2
20260505111300 15 114 3.2 3.2 0.00 0.00 0.00 88 1018.2
20260505110756 15 90 0.0 1.6 0.00 0.00 0.00 88 1018.1
20260505110254 15 99 0.0 3.2 0.00 0.00 0.00 88 1017.9
20260505101728 14 81 0.0 0.0 0.00 0.00 0.00 88 1017.6
20260505101224 14 81 0.0 0.0 0.00 0.00 0.00 88 1017.5
20260505100720 14 66 0.0 1.6 0.00 0.00 0.00 88 1017.6
20260505100217 14 66 0.0 1.6 0.00 0.00 0.00 87 1017.5
20260505095713 14 90 0.0 0.0 0.00 0.00 0.00 87 1017.5
20260505095211 14 90 0.0 1.6 0.00 0.00 0.00 87 1017.3
20260505094706 15 98 0.0 1.6 0.00 0.00 0.00 87 1017.6
20260505094203 14 90 0.0 0.0 0.00 0.00 0.00 87 1017.6
20260505093659 15 90 0.0 1.6 0.00 0.00 0.00 87 1017.3
20260505093157 14 90 0.0 1.6 0.00 0.00 0.00 87 1017.2
20260505092653 14 90 0.0 1.6 0.00 0.00 0.00 87 1017.2
20260505092152 14 90 0.0 1.6 0.00 0.00 0.00 87 1017.1
20260505091649 14 90 0.0 1.6 0.00 0.00 0.00 86 1017.0
20260505091147 14 90 0.0 0.0 0.00 0.00 0.00 86 1017.1
20260505090644 15 99 0.0 0.0 0.00 0.00 0.00 86 1016.9
20260505090142 15 82 0.0 0.0 0.00 0.00 0.00 86 1017.2
20260505085639 15 105 1.6 3.2 0.00 0.00 0.00 86 1017.2
20260505085138 15 90 0.0 1.6 0.00 0.00 0.00 86 1017.2
20260505084635 15 117 0.0 1.6 0.00 0.00 0.00 86 1017.0
20260505084133 15 126 1.6 3.2 0.00 0.00 0.00 86 1017.1
20260505083631 15 90 0.0 3.2 0.00 0.00 0.00 86 1017.1
20260505083127 15 99 0.0 1.6 0.00 0.00 0.00 86 1017.1
20260505082623 15 90 0.0 3.2 0.00 0.00 0.00 86 1017.0